Location: Great Snoring
(52.8667°N, 0.8833°E)
Time: 14:56:45
(UTC+00:00)

Meteor 2-6 Rocket - Pass Details

Date: 19 May 2025
Orbit: 804 x 914 km, 81.3° (Epoch: 18 June)

Event Time Altitude Azimuth Distance (km) Brightness Sun altitude
Exits shadow 21:30:14 11° 171° (S) 2,498 6.1 -10.9°
Maximum altitude 21:35:43 55° 96° (E) 1,058 4.5 -11.3°
Drops below altitude 10° 21:41:16 10° 20° (NNE) 2,514 7.2 -11.8°
Sets 21:43:43 0° 16° (NNE) 3,438 8.1 -12.0°
